Location: Gugi
(45.4667°N, 11.1000°E)
Time: 05:33:07
(UTC+00:00)

Cosmos 1470 Rocket - Pass Details

Date: 17 November 2019
Orbit: 604 x 633 km, 82.5° (Epoch: 15 December)

Event Time Altitude Azimuth Distance (km) Brightness Sun altitude
Rises 17:26:10 0° 353° (N) 2,941 7.0 -17.8°
Reaches altitude 10° 17:28:27 10° 357° (N) 2,028 6.1 -18.2°
Maximum altitude 17:32:55 65° 79° (E) 701 3.5 -19.0°
Drops below altitude 10° 17:37:21 10° 162° (SSE) 2,007 6.1 -19.8°
Sets 17:39:35 0° 165° (SSE) 2,906 6.9 -20.2°
